DW7857 Weather Reports


Display with metric or nautical units.
time (UTC)temp
F
wind
direction
speed
MPH
gust
MPH
rain 1hr
in
rain 24hr
in
rain mn
in
humidity
%
barometer
mb
20200121164012 38 41 3.0 4.0 0.00 0.01 0.00 84 1001.8
20200121163013 39 57 4.0 5.0 0.00 0.01 0.00 83 1001.4
20200121162013 39 42 3.0 4.0 0.00 0.01 0.00 82 1001.6
20200121161022 40 57 3.0 4.0 0.00 0.01 0.00 81 1001.4
20200121160022 40 59 3.0 4.0 0.00 0.01 0.00 80 1001.4
20200121155013 41 69 3.0 4.0 0.00 0.01 0.00 78 1001.5
20200121154013 42 42 2.0 4.0 0.00 0.01 0.00 77 1001.3
20200121153013 43 321 2.0 3.0 0.00 0.01 0.00 75 1001.5
20200121152013 44 347 2.0 3.0 0.00 0.01 0.00 75 1001.4
20200121151013 44 25 2.0 3.0 0.00 0.01 0.00 74 1001.5
20200121150022 45 330 1.0 2.0 0.00 0.01 0.00 73 1001.6
20200121145022 46 342 1.0 2.0 0.00 0.01 0.00 71 1001.6
20200121144013 46 328 1.0 2.0 0.00 0.01 0.00 75 1001.8
20200121143013 44 75 1.0 2.0 0.00 0.01 0.00 83 1001.9
20200121142022 44 43 1.0 2.0 0.00 0.01 0.00 88 1002.1
20200121141022 43 344 2.0 3.0 0.00 0.01 0.00 90 1002.0
20200121140022 42 57 2.0 3.0 0.00 0.01 0.00 91 1002.1
20200121135022 41 50 2.0 4.0 0.00 0.01 0.00 92 1002.7
20200121134013 41 64 2.0 3.0 0.00 0.01 0.00 93 1002.6
20200121133013 40 52 3.0 4.0 0.00 0.01 0.00 92 1002.4
20200121132013 39 48 2.0 3.0 0.00 0.01 0.00 92 1002.6
20200121131022 38 48 2.0 3.0 0.00 0.01 0.00 92 1002.8
20200121130022 37 53 3.0 4.0 0.00 0.01 0.00 91 1002.8
20200121125022 36 19 3.0 4.0 0.00 0.01 0.00 91 1003.3
20200121124013 36 36 4.0 4.0 0.00 0.01 0.00 91 1003.2
20200121123013 36 22 4.0 4.0 0.00 0.01 0.00 91 1003.3
20200121122013 36 48 4.0 4.0 0.00 0.01 0.00 91 1003.4
20200121121022 36 64 3.0 4.0 0.00 0.01 0.00 91 1003.4
20200121120013 37 46 4.0 4.0 0.00 0.01 0.00 91 1003.5
20200121115022 37 21 4.0 5.0 0.00 0.01 0.00 92 1003.6
20200121114022 36 41 2.0 4.0 0.00 0.01 0.00 91 1003.6
20200121113023 36 50 2.0 2.0 0.00 0.01 0.00 91 1003.4
20200121112025 35 52 2.0 3.0 0.00 0.01 0.00 91 1003.9
20200121111022 34 46 2.0 2.0 0.00 0.01 0.00 90 1003.9
20200121110022 34 34 1.0 2.0 0.00 0.01 0.00 90 1004.1
20200121105023 33 41 2.0 2.0 0.00 0.01 0.00 90 1003.9
20200121104022 33 315 2.0 3.0 0.00 0.01 0.00 90 1003.6
20200121103012 33 322 2.0 2.0 0.00 0.01 0.00 90 1003.8
20200121102013 32 1 2.0 2.0 0.00 0.01 0.00 90 1003.9
20200121101022 32 49 2.0 2.0 0.00 0.01 0.00 89 1004.0
20200121100013 31 47 2.0 3.0 0.00 0.01 0.00 89 1004.1
20200121095013 31 41 3.0 4.0 0.00 0.01 0.00 89 1004.2
20200121094022 31 65 3.0 3.0 0.00 0.01 0.00 89 1004.2
20200121093022 31 12 2.0 3.0 0.00 0.01 0.00 89 1004.2
20200121092022 31 358 2.0 2.0 0.00 0.01 0.00 89 1003.8
20200121091022 31 16 2.0 2.0 0.00 0.01 0.00 89 1004.0
20200121090022 31 17 2.0 3.0 0.00 0.01 0.00 89 1004.3
20200121085022 31 51 2.0 3.0 0.00 0.01 0.00 89 1003.9
20200121084022 31 343 1.0 2.0 0.00 0.01 0.00 89 1004.0
20200121083022 31 13 1.0 2.0 0.00 0.01 0.00 89 1004.0
20200121082022 31 33 1.0 2.0 0.00 0.01 0.00 89 1003.8
20200121081022 31 37 1.0 2.0 0.00 0.01 0.00 89 1003.8
20200121080022 31 270 0.0 1.0 0.00 0.01 0.00 89 1003.8
20200121075022 31 255 1.0 1.0 0.00 0.01 0.00 89 1003.7
20200121074022 31 45 0.0 2.0 0.00 0.01 0.00 89 1003.6
20200121073022 31 45 1.0 2.0 0.00 0.01 0.00 89 1003.4
20200121072022 31 30 0.0 1.0 0.00 0.01 0.00 89 1003.7
20200121071022 31 18 0.0 1.0 0.00 0.01 0.00 89 1003.5
20200121070023 31 1 0.0 1.0 0.00 0.01 0.00 89 1003.7
20200121065021 31 0 0.0 0.0 0.00 0.01 0.00 89 1003.5
20200121064022 31 0 0.0 0.0 0.00 0.01 0.00 89 1003.4
20200121063022 31 270 0.0 1.0 0.00 0.01 0.00 89 1003.5
20200121062022 31 0 0.0 0.0 0.00 0.01 0.00 89 1003.5
20200121061022 31 0 0.0 0.0 0.00 0.01 0.00 89 1003.4
20200121060022 31 270 0.0 1.0 0.00 0.01 0.00 88 1003.3
20200121055022 31 0 0.0 0.0 0.00 0.01 0.00 89 1003.3
20200121054022 32 0 0.0 0.0 0.00 0.01 0.00 89 1003.4
20200121053022 32 135 0.0 1.0 0.00 0.01 0.00 89 1003.6
20200121052022 31 0 0.0 0.0 0.00 0.01 0.00 88 1003.3
20200121051022 31 0 0.0 0.0 0.00 0.01 0.00 88 1003.4
20200121050023 31 0 0.0 0.0 0.00 0.01 0.00 88 1003.5
20200121045022 31 0 0.0 0.0 0.00 0.01 0.00 88 1003.5
20200121044022 31 0 0.0 0.0 0.00 0.01 0.00 88 1003.6
20200121043023 31 111 0.0 1.0 0.00 0.01 0.00 88 1003.7
20200121042022 31 135 0.0 1.0 0.00 0.01 0.00 88 1003.7
20200121041022 31 135 0.0 1.0 0.00 0.01 0.00 88 1003.5
20200121040022 32 0 0.0 0.0 0.00 0.01 0.00 88 1003.7
20200121035022 32 135 0.0 1.0 0.00 0.01 0.00 89 1003.6
20200121034022 33 0 0.0 0.0 0.00 0.01 0.00 89 1003.7
20200121033022 33 0 0.0 0.0 0.00 0.01 0.00 89 1003.8
20200121032022 34 156 0.0 1.0 0.00 0.01 0.00 89 1004.1
20200121031022 33 181 0.0 1.0 0.00 0.01 0.00 89 1003.8
20200121030022 34 193 1.0 2.0 0.00 0.01 0.00 89 1004.2
20200121025022 33 184 3.0 3.0 0.00 0.01 0.00 89 1004.0
20200121024022 33 177 1.0 2.0 0.00 0.01 0.00 88 1004.3
20200121023023 33 0 0.0 0.0 0.00 0.01 0.00 88 1004.4
20200121022022 33 0 0.0 0.0 0.00 0.01 0.00 88 1004.7
20200121021023 33 0 0.0 0.0 0.00 0.01 0.00 88 1004.6
20200121020022 34 55 0.0 1.0 0.00 0.01 0.00 88 1004.7
20200121015023 34 48 1.0 1.0 0.00 0.01 0.00 88 1004.4
20200121014023 34 31 0.0 1.0 0.00 0.01 0.00 88 1004.6
20200121013022 34 13 0.0 1.0 0.00 0.01 0.00 88 1004.7
20200121012022 34 0 0.0 0.0 0.00 0.01 0.00 88 1004.8
20200121011023 34 0 0.0 0.0 0.00 0.01 0.00 88 1004.8
20200121010022 34 0 0.0 0.0 0.00 0.01 0.00 88 1004.9
20200121005013 35 0 0.0 0.0 0.00 0.01 0.00 88 1005.1
20200121004023 35 0 0.0 0.0 0.00 0.01 0.00 88 1005.1
20200121003022 36 0 0.0 0.0 0.00 0.01 0.00 89 1005.2
20200121002023 36 41 0.0 1.0 0.00 0.01 0.00 89 1005.6
20200121001023 36 32 1.0 2.0 0.00 0.01 0.00 89 1005.7
20200121000025 36 44 1.0 2.0 0.00 0.01 0.00 88 1005.5
20200120235022 36 69 1.0 2.0 0.00 0.01 0.01 88 1005.5
20200120234022 36 52 2.0 3.0 0.00 0.01 0.01 88 1005.5
20200120233022 36 49 2.0 2.0 0.00 0.01 0.01 87 1005.6
20200120232022 35 40 1.0 2.0 0.00 0.01 0.01 87 1005.7
20200120231022 35 71 1.0 2.0 0.00 0.01 0.01 87 1005.9
20200120230023 35 51 0.0 2.0 0.00 0.01 0.01 87 1006.0
20200120225022 34 45 0.0 1.0 0.00 0.01 0.01 87 1006.0
20200120224022 35 181 0.0 1.0 0.00 0.01 0.01 87 1006.2
20200120223022 34 172 0.0 1.0 0.00 0.01 0.01 86 1006.2
20200120222022 35 151 0.0 1.0 0.00 0.01 0.01 87 1006.0
20200120221022 36 165 0.0 1.0 0.00 0.01 0.01 87 1006.1
20200120220023 36 165 0.0 1.0 0.00 0.01 0.01 87 1006.4
20200120215023 36 135 0.0 2.0 0.00 0.01 0.01 86 1006.4
20200120214022 36 0 0.0 0.0 0.00 0.01 0.01 86 1006.4
20200120213023 36 0 0.0 0.0 0.00 0.01 0.01 86 1006.3
20200120212022 37 0 0.0 0.0 0.00 0.01 0.01 87 1006.7
20200120211022 37 230 1.0 2.0 0.00 0.01 0.01 86 1006.8
20200120210022 36 0 0.0 0.0 0.00 0.01 0.01 85 1006.8
20200120205022 35 0 0.0 0.0 0.00 0.01 0.01 84 1007.0
20200120204022 35 0 0.0 0.0 0.00 0.01 0.01 84 1007.0
20200120203022 35 0 0.0 0.0 0.00 0.01 0.01 84 1007.0
20200120202022 35 141 0.0 2.0 0.00 0.01 0.01 83 1006.9
20200120201022 35 90 0.0 1.0 0.00 0.01 0.01 83 1006.9
20200120200022 35 0 0.0 0.0 0.00 0.01 0.01 82 1006.9
20200120195022 34 0 0.0 0.0 0.00 0.01 0.01 82 1007.3
20200120194022 34 135 0.0 1.0 0.00 0.01 0.01 82 1007.1
20200120193023 34 260 0.0 2.0 0.00 0.01 0.01 81 1007.1
20200120192022 35 266 0.0 1.0 0.00 0.01 0.01 82 1007.1
20200120191022 35 135 0.0 1.0 0.01 0.01 0.01 82 1007.3
20200120190022 35 135 0.0 1.0 0.01 0.01 0.01 81 1007.3
20200120185022 35 135 0.0 1.0 0.01 0.01 0.01 81 1007.3
20200120184022 35 114 0.0 2.0 0.01 0.01 0.01 80 1007.3
20200120183021 35 0 0.0 0.0 0.01 0.01 0.01 80 1007.5
20200120182023 36 46 0.0 1.0 0.01 0.01 0.01 80 1007.6